Flag for Hong Kong Weather past 2 weeks in Kowloon, Hong Kong

Now
77 °F

Passing clouds.


Feels Like: 79 °F
Forecast: 72 / 80 °F
Wind: 12 mph from South

Location: National Airport


UV Index: 7 (High)

Visibility: N/A


Pressure: 29.89 "Hg

Humidity: 74%

Dew point: 68 °F

Location of KowloonLocation

Historic Weather in Kowloon

°F

Kowloon temperature yesterday

Maximum temperature yesterday: 81 °F (at 1:30 PM)
Minimum temperature yesterday: 72 °F (at 1:30 AM)
Average temperature yesterday: 75 °F

Past Weeks' High & Low Weather Summary

 TemperatureHumidityPressure
High86 °F (Apr 13, 1:00 PM)100% (Apr 3, 5:00 AM)30.07 "Hg (Apr 3, 5:00 AM)
Low64 °F (Apr 5, 6:00 AM)24% (Apr 5, 12:00 PM)29.80 "Hg (Apr 3, 3:30 AM)
Average74 °F76%29.95 "Hg
* Reported Apr 2 8:00 PM — Apr 17 8:00 PM, Kowloon, Weather by CustomWeather, © 2014

Note: Actual official high and low records may vary slightly from our data, if they occured in-between our weather recording intervals... More about our weather records

Advertising

Historic Weather Conditions — Data for Previous 24 hours

 ConditionsComfort  
Time TempWeatherWind HumidityBarometerVisibility
8:00 PM
Apr 17
77 °FPassing clouds.14 mph74%29.86 "HgN/A
7:30 PM79 °FPassing clouds.15 mph70%29.86 "HgN/A
7:00 PM79 °FPassing clouds.15 mph70%29.86 "HgN/A
6:30 PM79 °FPassing clouds.10 mph70%29.86 "HgN/A
6:00 PM79 °FPassing clouds.13 mph70%29.83 "HgN/A
5:30 PM81 °FPassing clouds.10 mph66%29.83 "HgN/A
5:00 PM81 °FPassing clouds.7 mph66%29.83 "HgN/A
4:30 PM82 °FPassing clouds.8 mph62%29.83 "HgN/A
4:00 PM82 °FPassing clouds.12 mph62%29.83 "HgN/A
3:30 PM82 °FPassing clouds.13 mph62%29.83 "HgN/A
3:00 PM82 °FPassing clouds.13 mph62%29.83 "HgN/A
2:30 PM84 °FPassing clouds.3 mph62%29.86 "HgN/A
2:00 PM82 °FPassing clouds.8 mph62%29.86 "HgN/A
1:30 PM84 °FPassing clouds.10 mph62%29.86 "Hg6 mi
1:00 PM86 °FPassing clouds.9 mph59%29.89 "HgN/A
12:30 PM84 °FScattered clouds.9 mph58%29.89 "HgN/A
12:00 PM84 °FPassing clouds.5 mph58%29.89 "HgN/A
11:30 AM84 °FPassing clouds.3 mph58%29.89 "HgN/A
11:00 AM81 °FScattered clouds.5 mph70%29.92 "HgN/A
10:30 AM82 °FScattered clouds.10 mph66%29.92 "HgN/A
10:00 AM81 °FPassing clouds.10 mph70%29.92 "Hg5 mi
9:30 AM79 °FScattered clouds.8 mph74%29.92 "Hg4 mi
9:00 AM79 °FScattered clouds.7 mph74%29.92 "HgN/A
8:30 AM77 °FScattered clouds.8 mph79%29.92 "Hg5 mi
8:00 AM75 °FScattered clouds.7 mph83%29.92 "Hg4 mi
7:30 AM75 °FScattered clouds.8 mph83%29.89 "Hg5 mi
7:00 AM73 °FScattered clouds.8 mph89%29.89 "Hg4 mi
6:30 AM73 °FScattered clouds.8 mph89%29.89 "Hg4 mi
6:00 AM73 °FPassing clouds.10 mph89%29.86 "Hg4 mi
5:30 AM73 °FPassing clouds.7 mph89%29.86 "Hg5 mi
5:00 AM73 °FPassing clouds.7 mph89%29.86 "Hg5 mi
4:30 AM73 °FPassing clouds.8 mph89%29.86 "Hg5 mi
4:00 AM73 °FPassing clouds.8 mph89%29.83 "Hg5 mi
3:30 AM73 °FPassing clouds.8 mph89%29.83 "Hg6 mi
3:00 AM73 °FPassing clouds.9 mph89%29.86 "Hg5 mi
2:30 AM73 °FPassing clouds.9 mph89%29.86 "Hg5 mi
2:00 AM75 °FPassing clouds.9 mph83%29.86 "Hg5 mi
1:30 AM73 °FPassing clouds.9 mph89%29.86 "Hg5 mi
1:00 AM73 °FPassing clouds.9 mph89%29.89 "Hg5 mi
12:30 AM75 °FPassing clouds.9 mph83%29.89 "Hg5 mi
12:00 AM75 °FPassing clouds.12 mph83%29.89 "Hg5 mi
11:30 PM
Apr 16
75 °FPassing clouds.14 mph83%29.89 "Hg6 mi
11:00 PM75 °FPassing clouds.14 mph83%29.89 "Hg6 mi
10:30 PM75 °FPassing clouds.10 mph83%29.89 "Hg6 mi
10:00 PM77 °FPassing clouds.12 mph79%29.89 "Hg6 mi
9:30 PM75 °FPassing clouds.12 mph83%29.89 "Hg6 mi
9:00 PM75 °FPassing clouds.10 mph78%29.89 "Hg5 mi
Weather by CustomWeather, © 2014

See weather overview